KOSEN 1
1 49402U 21102H   25339.08432452  .00017021  00000-0  71463-3 0  9990
2 49402  97.3477  20.1348 0015006 166.8971 193.2659 15.23421235224434
HO-113
1 50466U 21131B   25339.29040030  .00001227  00000-0  39464-3 0  9990
2 50466  98.5060  67.7495 0003439 333.4550  26.6463 14.41096865207180
SNUGLITE 2
1 52899U 22065F   25339.28314716  .00002810  00000-0  54762-3 0  9990
2 52899  98.1921 119.8583 0006398 272.8379  87.2091 14.63802238182627
UmKA 1 (RS40S)
1 57172U 23091G   25339.29393181  .00012887  00000-0  63445-3 0  9996
2 57172  97.5355  33.7916 0015068  76.8879 283.4035 15.18016829134567
CubeBel-2 (EU11S)
1 57175U 23091K   25339.30106640  .00022945  00000-0  95393-3 0  9996
2 57175  97.5352  36.2197 0012386  79.6551 280.6081 15.23727282134720
RS-38S
1 57189U 23091Z   25339.31173225  .00026091  00000-0  92528-3 0  9998
2 57189  97.5380  40.6182 0009324  47.4358 312.7667 15.29019077134993
SONATE-2
1 59112U 24043Q   25338.94449435  .00045711  00000-0  98385-3 0  9998
2 59112  97.5328 114.9084 0008896 190.0982 170.0088 15.44453211 97775
MO-122
1 60209U 24125G   25339.15038105  .00049682  00000-0  10270-2 0  9997
2 60209  97.2524 189.5196 0013582 207.5649 152.4881 15.45565195 79437
GRBBeta
1 60237U 24128C   25338.97626529  .00009891  00000-0  68985-3 0  9998
2 60237  61.9885 176.7128 0056597  95.1552 265.6002 15.04633921 77029
Curium One
1 60242U 24128H   25339.10791827  .00017522  00000-0  10829-2 0  9997
2 60242  61.9775 171.3082 0056414  92.1061 268.6494 15.08671746 77134
ROBUSTA-3A
1 60243U 24128J   25339.24057175  .00012987  00000-0  82066-3 0  9997
2 60243  61.9850 172.3410 0056452  89.5811 271.1750 15.08051880 77135
CatSat
1 60246U 24125J   25339.13805726  .00062932  00000-0  15506-2 0  9997
2 60246  97.2323 186.6074 0033840 171.8304 188.3501 15.39751320 77354
HYPERVIEW-1G (RS66S)
1 61772U 24199AP  25339.30613134  .00059862  00000-0  11793-2 0  9994
2 61772  97.3216 208.6516 0008120 272.2029  87.8291 15.46988157104460
AO-123
1 61781U 24199AY  25339.29105740  .00018140  00000-0  59270-3 0  9998
2 61781  97.3255 204.8230 0013061 286.0839  73.8965 15.31710328104208
ZIMSAT 2
1 61783U 24199BA  25339.28051802  .00250490  00000-0  20656-2 0  9999
2 61783  97.3108 211.8906 0002981 249.4332 110.6611 15.69580678107839
HADES-R (SO-124)
1 62690U 25009CK  25339.18520997  .00221778  00000-0  31206-2 0  9993
2 62690  97.3896  61.5311 0001802 226.3634 133.7471 15.55889890 49604
HYDRA-T
1 62692U 25009CM  25339.17169311  .00251017  00000-0  33262-2 0  9996
2 62692  97.3895  61.7005 0001634 236.1604 123.9496 15.57416028 49616
JINJUSat 1B
1 63210U 25052A   25339.18159350  .00027890  00000-0  10735-2 0  9994
2 63210  97.4209 231.3850 0005879  63.3798 296.8042 15.26325523 40438
NUSHSAT 1
1 63211U 25052B   25339.18198021  .00033970  00000-0  12673-2 0  9992
2 63211  97.4191 231.4970 0005964  65.1588 295.0271 15.27319653 40449
TEVEL2-4
1 63213U 25052D   25338.65522823  .00038689  00000-0  14719-2 0  9991
2 63213  97.4110 230.5420 0005210  78.2790 281.9033 15.26644751 40355
TEVEL2-5
1 63214U 25052E   25338.20145839  .00040706  00000-0  15529-2 0  9994
2 63214  97.4107 230.0802 0005131  80.1451 280.0367 15.26541551 40285
TEVEL2-6
1 63215U 25052F   25339.19175506  .00030272  00000-0  11566-2 0  9992
2 63215  97.4114 231.0516 0005337  78.4386 281.7451 15.26557113 40432
TEVEL2-1
1 63217U 25052H   25339.16727773  .00029135  00000-0  11242-2 0  9997
2 63217  97.4088 230.8449 0005394  86.8879 273.2977 15.26236840 40428
TEVEL2-3
1 63218U 25052J   25339.16658612  .00029324  00000-0  11307-2 0  9995
2 63218  97.4088 230.8494 0005458  87.4050 272.7814 15.26256950 40426
TEVEL2-2
1 63219U 25052K   25339.16805417  .00028971  00000-0  11179-2 0  9997
2 63219  97.4084 230.8460 0005434  87.5823 272.6037 15.26237378 40428
TEVEL2-9
1 63237U 25052AD  25339.18933407  .00028651  00000-0  11546-2 0  9993
2 63237  97.4152 230.5840 0009024 102.4524 257.7724 15.24762712 40393
TEVEL2-7
1 63238U 25052AE  25339.13688169  .00030281  00000-0  12252-2 0  9998
2 63238  97.4152 230.5078 0009130 102.7839 257.4419 15.24614782 40387
TEVEL2-8
1 63239U 25052AF  25339.20802327  .00026678  00000-0  10811-2 0  9995
2 63239  97.4151 230.5632 0009188 102.7351 257.4915 15.24590268 40399
HYDRA-W
1 63490U 25052BL  25339.16777635  .00107053  00000-0  26505-2 0  9996
2 63490  97.4071 232.8471 0011537  89.8466 270.4102 15.39949254 40558
HADES-ICM (SO-125)
1 63492U 25052BN  25339.21841928  .00092177  00000-0  24234-2 0  9998
2 63492  97.4080 232.6503 0011537  93.7505 266.5059 15.38168880 40545
Dragonfly
1 65729U 98067XH  25338.78355088  .00218353  00000-0  18217-2 0  9997
2 65729  51.6240 176.4076 0006568 226.1978 133.8476 15.68817694 11919
RSP-03
1 65732U 98067XL  25339.27966488  .00153130  00000-0  14260-2 0  9993
2 65732  51.6250 174.4773 0006353 204.5134 155.5560 15.66336847 11999
GHS-01
1 65733U 98067XM  25338.81146514  .00266248  00000-0  20185-2 0  9991
2 65733  51.6270 175.8507 0006908 226.7602 133.2820 15.70973864 11931
BOTAN
1 65942U 98067XP  25338.65604502  .00149041  00000-0  17279-2 0  9992
2 65942  51.6268 180.0664 0004265 180.2775 179.8217 15.60784931  8601
SPIRONE
1 66657U 25274H   25339.30209401  .00006182  00000-0  60861-3 0  9992
2 66657  97.7387 266.6360 0011061 304.7015  55.3162 14.92384278  1293
K-HERO
1 66660U 25274L   25339.29914367  .00005499  00000-0  53497-3 0  9995
2 66660  97.7394 266.6407 0012966 309.2025  50.8042 14.92891926  1293
CEVROSAT1
1 98526U 25248E   25313.13142326  .00000000  00000-0  19360-3 0    02
2 98526  45.4084 218.4764 0001315 254.8982 242.1062 15.17981583    02
